When you browse on this site, cookies collect data to enhance your experience and personalize the content and advertising you see.
Visit our Privacy Policy to learn more. By continuing to use the site, you agree to this use of cookies and data.
  • In Czech Republic
  • List of Countries
  • For 7 days
  • Water Temperature
  • Satellite Maps
  • Weather Map
  • Weather Widgets
  • user-avatar
    Login

    Hourly Weather Mendoza

    Today, 21 January, Monday

    Time Temperature Precipitation Wind Pressure Humidity
    00:00 +27°C° 0 mm 2 mps 697 mmHg 52%
    01:00 +27°C° 0 mm 2 mps 697 mmHg 58%
    02:00 +26°C° 0 mm 1 mps 697 mmHg 61%
    03:00 +25°C° 0 mm 1 mps 697 mmHg 64%
    04:00 +25°C° 0 mm 1 mps 697 mmHg 67%
    05:00 +25°C° 0 mm 2 mps 698 mmHg 65%
    06:00 +26°C° 0 mm 2 mps 698 mmHg 63%
    07:00 +27°C° 0 mm 3 mps 699 mmHg 61%
    08:00 +28°C° 0 mm 3 mps 699 mmHg 58%
    09:00 +29°C° 0 mm 3 mps 699 mmHg 54%
    10:00 +30°C° 0 mm 3 mps 699 mmHg 51%
    11:00 +31°C° 0 mm 3 mps 698 mmHg 46%
    12:00 +33°C° 0 mm 4 mps 698 mmHg 42%
    13:00 +34°C° 0 mm 4 mps 697 mmHg 38%
    14:00 +35°C° 0 mm 4 mps 697 mmHg 35%
    15:00 +35°C° 0 mm 4 mps 697 mmHg 32%
    16:00 +36°C° 0 mm 5 mps 696 mmHg 30%
    17:00 +35°C° 0 mm 4 mps 697 mmHg 31%
    18:00 +34°C° 0 mm 3 mps 697 mmHg 31%
    19:00 +32°C° 0 mm 2 mps 697 mmHg 32%
    20:00 +31°C° 0 mm 2 mps 697 mmHg 35%
    21:00 +31°C° 0 mm 2 mps 697 mmHg 38%
    22:00 +30°C° 0 mm 2 mps 698 mmHg 41%
    23:00 +29°C° 0 mm 1 mps 697 mmHg 45%

    Tomorrow, 22 January, Tuesday

    Time Temperature Precipitation Wind Pressure Humidity
    00:00 +29°C° 0 mm 1 mps 697 mmHg 48%
    01:00 +28°C° 0 mm 1 mps 696 mmHg 52%
    02:00 +27°C° 0 mm 1 mps 696 mmHg 54%
    03:00 +27°C° 0 mm 1 mps 696 mmHg 56%
    04:00 +26°C° 0 mm 1 mps 696 mmHg 58%
    05:00 +28°C° 0 mm 1 mps 696 mmHg 54%
    06:00 +29°C° 0 mm 1 mps 697 mmHg 51%
    07:00 +30°C° 0 mm 2 mps 697 mmHg 47%
    08:00 +31°C° 0 mm 2 mps 697 mmHg 44%
    09:00 +32°C° 0 mm 2 mps 698 mmHg 40%
    10:00 +35°C° 0 mm 2 mps 698 mmHg 37%
    11:00 +36°C° 0 mm 3 mps 697 mmHg 35%
    12:00 +37°C° 0 mm 3 mps 697 mmHg 32%
    13:00 +38°C° 0 mm 4 mps 697 mmHg 30%
    14:00 +38°C° 0 mm 4 mps 697 mmHg 29%
    15:00 +38°C° 0 mm 4 mps 696 mmHg 28%
    16:00 +40°C° 0 mm 4 mps 696 mmHg 27%
    17:00 +38°C° 0 mm 4 mps 696 mmHg 28%
    18:00 +37°C° 0 mm 3 mps 697 mmHg 29%
    19:00 +36°C° 0 mm 3 mps 697 mmHg 30%
    20:00 +35°C° 0 mm 2 mps 698 mmHg 33%
    21:00 +33°C° 0 mm 1 mps 698 mmHg 35%
    22:00 +33°C° 0 mm 1 mps 699 mmHg 38%
    23:00 +33°C° 0.1 mm 3 mps 699 mmHg 39%

    Day after tomorrow, 23 January, Wednesday

    Time Temperature Precipitation Wind Pressure Humidity
    00:00 +32°C° 0.1 mm 5 mps 698 mmHg 39%
    01:00 +30°C° 0.1 mm 7 mps 698 mmHg 40%
    02:00 +30°C° 0 mm 6 mps 698 mmHg 39%
    03:00 +29°C° 0 mm 6 mps 698 mmHg 38%
    04:00 +28°C° 0 mm 5 mps 698 mmHg 36%
    05:00 +28°C° 0 mm 5 mps 698 mmHg 32%
    06:00 +29°C° 0 mm 5 mps 699 mmHg 29%
    07:00 +29°C° 0 mm 6 mps 699 mmHg 25%
    08:00 +32°C° 0 mm 5 mps 699 mmHg 25%
    09:00 +33°C° 0 mm 5 mps 699 mmHg 26%
    10:00 +34°C° 0 mm 5 mps 699 mmHg 27%
    11:00 +35°C° 0 mm 4 mps 698 mmHg 27%
    12:00 +36°C° 0 mm 4 mps 698 mmHg 26%
    13:00 +37°C° 0 mm 4 mps 697 mmHg 25%
    14:00 +38°C° 0 mm 3 mps 697 mmHg 26%
    15:00 +38°C° 0 mm 3 mps 697 mmHg 26%
    16:00 +38°C° 0 mm 2 mps 696 mmHg 26%
    17:00 +37°C° 0 mm 2 mps 696 mmHg 28%
    18:00 +36°C° 0 mm 1 mps 696 mmHg 30%
    19:00 +35°C° 0 mm 1 mps 697 mmHg 32%
    20:00 +34°C° 0 mm 1 mps 697 mmHg 35%
    21:00 +34°C° 0 mm 1 mps 697 mmHg 38%
    22:00 +34°C° 0 mm 2 mps 697 mmHg 41%
    23:00 +32°C° 0.2 mm 2 mps 697 mmHg 45%

    24 January, Thursday

    Time Temperature Precipitation Wind Pressure Humidity
    00:00 +31°C° 0.2 mm 3 mps 696 mmHg 48%
    01:00 +30°C° 0.2 mm 3 mps 696 mmHg 52%
    02:00 +30°C° 0 mm 3 mps 696 mmHg 52%
    03:00 +30°C° 0 mm 3 mps 696 mmHg 53%
    04:00 +29°C° 0 mm 3 mps 696 mmHg 53%
    05:00 +30°C° 0 mm 2 mps 696 mmHg 53%
    06:00 +31°C° 0 mm 2 mps 696 mmHg 53%
    07:00 +31°C° 0 mm 2 mps 696 mmHg 53%
    08:00 +34°C° 0 mm 2 mps 696 mmHg 49%
    09:00 +35°C° 0 mm 2 mps 696 mmHg 44%
    10:00 +37°C° 0 mm 2 mps 696 mmHg 39%
    11:00 +38°C° 0 mm 3 mps 696 mmHg 37%
    12:00 +39°C° 0 mm 3 mps 695 mmHg 34%
    13:00 +41°C° 0 mm 4 mps 695 mmHg 31%
    14:00 +40°C° 0.2 mm 3 mps 694 mmHg 30%
    15:00 +42°C° 0.2 mm 3 mps 694 mmHg 29%
    16:00 +42°C° 0.2 mm 3 mps 694 mmHg 28%
    17:00 +40°C° 0 mm 2 mps 694 mmHg 29%
    18:00 +39°C° 0 mm 2 mps 694 mmHg 30%
    19:00 +38°C° 0 mm 2 mps 694 mmHg 31%
    20:00 +38°C° 0 mm 2 mps 695 mmHg 33%
    21:00 +37°C° 0 mm 2 mps 695 mmHg 34%
    22:00 +36°C° 0 mm 1 mps 695 mmHg 36%
    23:00 +35°C° 0.4 mm 2 mps 695 mmHg 42%

    25 January, Friday

    Time Temperature Precipitation Wind Pressure Humidity
    00:00 +34°C° 0.4 mm 3 mps 695 mmHg 49%
    01:00 +33°C° 0.4 mm 4 mps 694 mmHg 56%
    02:00 +32°C° 0 mm 4 mps 694 mmHg 58%
    03:00 +32°C° 0 mm 4 mps 694 mmHg 61%
    04:00 +30°C° 0 mm 4 mps 694 mmHg 63%
    05:00 +32°C° 0 mm 5 mps 694 mmHg 60%
    06:00 +33°C° 0 mm 6 mps 695 mmHg 56%
    07:00 +34°C° 0 mm 7 mps 696 mmHg 52%
    08:00 +35°C° 0 mm 7 mps 696 mmHg 48%
    09:00 +37°C° 0 mm 8 mps 696 mmHg 44%
    10:00 +38°C° 0 mm 8 mps 697 mmHg 40%
    11:00 +38°C° 0 mm 7 mps 696 mmHg 37%
    12:00 +39°C° 0 mm 7 mps 696 mmHg 34%
    13:00 +40°C° 0 mm 6 mps 696 mmHg 31%
    14:00 +39°C° 0 mm 6 mps 696 mmHg 31%
    15:00 +39°C° 0 mm 6 mps 696 mmHg 30%
    16:00 +39°C° 0 mm 6 mps 696 mmHg 30%
    17:00 +38°C° 0 mm 6 mps 697 mmHg 32%
    18:00 +36°C° 0 mm 5 mps 697 mmHg 34%
    19:00 +35°C° 0 mm 5 mps 698 mmHg 35%
    20:00 +34°C° 0 mm 5 mps 699 mmHg 35%
    21:00 +33°C° 0 mm 5 mps 699 mmHg 34%
    22:00 +33°C° 0 mm 6 mps 700 mmHg 33%
    23:00 +30°C° 0 mm 5 mps 700 mmHg 32%

    26 January, Saturday

    Time Temperature Precipitation Wind Pressure Humidity
    00:00 +29°C° 0 mm 4 mps 700 mmHg 31%
    01:00 +28°C° 0 mm 4 mps 700 mmHg 30%
    02:00 +27°C° 0 mm 4 mps 700 mmHg 30%
    03:00 +27°C° 0 mm 4 mps 700 mmHg 30%
    04:00 +26°C° 0 mm 4 mps 700 mmHg 30%
    05:00 +27°C° 0 mm 4 mps 700 mmHg 28%
    06:00 +28°C° 0 mm 4 mps 701 mmHg 26%
    07:00 +29°C° 0 mm 4 mps 701 mmHg 24%
    08:00 +30°C° 0 mm 4 mps 701 mmHg 23%
    09:00 +32°C° 0 mm 4 mps 700 mmHg 22%
    10:00 +33°C° 0 mm 4 mps 700 mmHg 21%
    11:00 +34°C° 0 mm 4 mps 700 mmHg 21%
    12:00 +35°C° 0 mm 4 mps 699 mmHg 21%
    13:00 +35°C° 0 mm 4 mps 699 mmHg 22%
    14:00 +36°C° 0 mm 3 mps 698 mmHg 23%
    15:00 +36°C° 0 mm 3 mps 698 mmHg 25%
    16:00 +36°C° 0 mm 3 mps 698 mmHg 26%
    17:00 +35°C° 0 mm 2 mps 698 mmHg 30%
    18:00 +34°C° 0 mm 1 mps 698 mmHg 34%
    19:00 +33°C° 0 mm 1 mps 699 mmHg 37%
    20:00 +33°C° 0 mm 1 mps 699 mmHg 38%
    21:00 +32°C° 0 mm 1 mps 699 mmHg 40%
    22:00 +32°C° 0 mm 1 mps 700 mmHg 41%
    23:00 +31°C° 0 mm 2 mps 699 mmHg 44%
    Show more